| time (UTC) | temp C | wind direction | speed KPH | gust KPH | rain 1hr cm | rain 24hr cm | rain mn cm | humidity % | barometer mb |
| 20260504223346 | 26 | 148 | 3.2 | 12.9 | 0.00 | 0.00 | 0.00 | 67 | 1010.6 |
| 20260504222820 | 26 | 194 | 4.8 | 12.9 | 0.00 | 0.00 | 0.00 | 66 | 1010.6 |
| 20260504222300 | 27 | 207 | 4.8 | 12.9 | 0.00 | 0.00 | 0.00 | 65 | 1010.6 |
| 20260504221801 | 27 | 138 | 4.8 | 12.9 | 0.00 | 0.00 | 0.00 | 66 | 1010.7 |
| 20260504221256 | 27 | 221 | 4.8 | 12.9 | 0.00 | 0.00 | 0.00 | 65 | 1010.8 |
| 20260504220756 | 27 | 154 | 3.2 | 12.9 | 0.00 | 0.00 | 0.00 | 66 | 1010.8 |
| 20260504220257 | 27 | 181 | 3.2 | 9.7 | 0.00 | 0.00 | 0.00 | 66 | 1010.8 |
| 20260504215735 | 27 | 200 | 4.8 | 9.7 | 0.00 | 0.00 | 0.00 | 65 | 1010.8 |
| 20260504215235 | 27 | 165 | 3.2 | 8.0 | 0.00 | 0.00 | 0.00 | 65 | 1010.9 |
| 20260504215158 | 27 | 163 | 3.2 | 11.3 | 0.00 | 0.00 | 0.00 | 65 | 1010.9 |
| 20260504214146 | 27 | 182 | 4.8 | 11.3 | 0.00 | 0.00 | 0.00 | 65 | 1011.1 |
| 20260504214103 | 27 | 180 | 4.8 | 11.3 | 0.00 | 0.00 | 0.00 | 64 | 1011.1 |
| 20260504213057 | 27 | 178 | 3.2 | 9.7 | 0.00 | 0.00 | 0.00 | 63 | 1011.0 |
| 20260504212531 | 27 | 186 | 3.2 | 6.4 | 0.00 | 0.00 | 0.00 | 63 | 1011.3 |
| 20260504212030 | 28 | 148 | 3.2 | 11.3 | 0.00 | 0.00 | 0.00 | 64 | 1011.2 |
| 20260504212013 | 27 | 237 | 3.2 | 14.5 | 0.00 | 0.00 | 0.00 | 64 | 1011.2 |
| 20260504211008 | 27 | 134 | 3.2 | 14.5 | 0.00 | 0.00 | 0.00 | 64 | 1011.4 |
| 20260504210506 | 27 | 171 | 4.8 | 16.1 | 0.00 | 0.00 | 0.00 | 63 | 1011.4 |
| 20260504210006 | 28 | 163 | 4.8 | 16.1 | 0.00 | 0.00 | 0.00 | 61 | 1011.5 |
| 20260504205503 | 28 | 112 | 4.8 | 9.7 | 0.00 | 0.00 | 0.00 | 61 | 1011.5 |
| 20260504205159 | 29 | 130 | 3.2 | 12.9 | 0.00 | 0.00 | 0.00 | 62 | 1011.6 |
| 20260504204436 | 28 | 148 | 3.2 | 16.1 | 0.00 | 0.00 | 0.00 | 60 | 1011.8 |
| 20260504203932 | 28 | 192 | 4.8 | 16.1 | 0.00 | 0.00 | 0.00 | 62 | 1011.7 |
| 20260504203430 | 28 | 104 | 6.4 | 16.1 | 0.00 | 0.00 | 0.00 | 60 | 1011.7 |
| 20260504202929 | 28 | 195 | 4.8 | 16.1 | 0.00 | 0.00 | 0.00 | 61 | 1011.9 |
| 20260504202426 | 28 | 187 | 4.8 | 12.9 | 0.00 | 0.00 | 0.00 | 63 | 1011.9 |
| 20260504201859 | 27 | 203 | 3.2 | 12.9 | 0.00 | 0.00 | 0.00 | 63 | 1012.2 |
| 20260504201333 | 27 | 169 | 3.2 | 12.9 | 0.00 | 0.00 | 0.00 | 63 | 1012.2 |
| 20260504200808 | 27 | 179 | 4.8 | 16.1 | 0.00 | 0.00 | 0.00 | 62 | 1012.3 |
| 20260504200306 | 27 | 184 | 4.8 | 16.1 | 0.00 | 0.00 | 0.00 | 63 | 1012.5 |
| 20260504195743 | 27 | 160 | 4.8 | 14.5 | 0.00 | 0.00 | 0.00 | 63 | 1012.5 |
| 20260504195240 | 27 | 196 | 4.8 | 14.5 | 0.00 | 0.00 | 0.00 | 61 | 1012.5 |
| 20260504194737 | 28 | 142 | 3.2 | 11.3 | 0.00 | 0.00 | 0.00 | 61 | 1012.8 |
| 20260504194210 | 27 | 181 | 3.2 | 11.3 | 0.00 | 0.00 | 0.00 | 62 | 1012.7 |
| 20260504193648 | 27 | 184 | 4.8 | 12.9 | 0.00 | 0.00 | 0.00 | 61 | 1012.7 |
| 20260504193124 | 28 | 193 | 4.8 | 12.9 | 0.00 | 0.00 | 0.00 | 62 | 1012.8 |
| 20260504192557 | 28 | 153 | 3.2 | 11.3 | 0.00 | 0.00 | 0.00 | 62 | 1012.8 |
| 20260504192056 | 27 | 131 | 4.8 | 12.9 | 0.00 | 0.00 | 0.00 | 62 | 1013.0 |
| 20260504191555 | 28 | 132 | 4.8 | 12.9 | 0.00 | 0.00 | 0.00 | 64 | 1013.2 |
| 20260504191053 | 27 | 188 | 4.8 | 14.5 | 0.00 | 0.00 | 0.00 | 62 | 1013.2 |
| 20260504190528 | 27 | 182 | 3.2 | 16.1 | 0.00 | 0.00 | 0.00 | 62 | 1013.2 |
| 20260504190441 | 27 | 181 | 3.2 | 16.1 | 0.00 | 0.00 | 0.00 | 62 | 1013.3 |
| 20260504185435 | 27 | 210 | 4.8 | 19.3 | 0.00 | 0.00 | 0.00 | 62 | 1013.4 |
| 20260504184932 | 27 | 208 | 4.8 | 19.3 | 0.00 | 0.00 | 0.00 | 63 | 1013.6 |
| 20260504184658 | 27 | 193 | 3.2 | 8.0 | 0.00 | 0.00 | 0.00 | 63 | 1013.5 |
| 20260504183931 | 27 | 147 | 3.2 | 9.7 | 0.00 | 0.00 | 0.00 | 63 | 1013.5 |
| 20260504183404 | 27 | 165 | 3.2 | 9.7 | 0.00 | 0.00 | 0.00 | 63 | 1013.5 |
| 20260504182837 | 27 | 144 | 4.8 | 11.3 | 0.00 | 0.00 | 0.00 | 63 | 1013.6 |
| 20260504182310 | 27 | 200 | 4.8 | 14.5 | 0.00 | 0.00 | 0.00 | 61 | 1013.5 |
| 20260504181744 | 27 | 200 | 4.8 | 20.9 | 0.00 | 0.00 | 0.00 | 61 | 1013.5 |
| 20260504181218 | 27 | 175 | 4.8 | 14.5 | 0.00 | 0.00 | 0.00 | 63 | 1013.7 |
| 20260504180651 | 26 | 116 | 4.8 | 16.1 | 0.00 | 0.00 | 0.00 | 62 | 1013.9 |
| 20260504180124 | 26 | 171 | 4.8 | 16.1 | 0.00 | 0.00 | 0.00 | 61 | 1014.0 |
| 20260504175618 | 27 | 207 | 4.8 | 14.5 | 0.00 | 0.00 | 0.00 | 62 | 1014.1 |
| 20260504175114 | 27 | 157 | 4.8 | 14.5 | 0.00 | 0.00 | 0.00 | 63 | 1014.1 |
| 20260504174610 | 26 | 185 | 4.8 | 14.5 | 0.00 | 0.00 | 0.00 | 62 | 1014.1 |
| 20260504174110 | 27 | 123 | 4.8 | 12.9 | 0.00 | 0.00 | 0.00 | 64 | 1014.1 |
| 20260504173834 | 26 | 132 | 4.8 | 12.9 | 0.00 | 0.00 | 0.00 | 62 | 1014.2 |
| 20260504173104 | 27 | 180 | 4.8 | 17.7 | 0.00 | 0.00 | 0.00 | 64 | 1014.3 |
| 20260504172538 | 27 | 131 | 4.8 | 17.7 | 0.00 | 0.00 | 0.00 | 63 | 1014.3 |
| 20260504172011 | 27 | 173 | 4.8 | 19.3 | 0.00 | 0.00 | 0.00 | 60 | 1014.5 |
| 20260504171510 | 27 | 160 | 4.8 | 19.3 | 0.00 | 0.00 | 0.00 | 62 | 1014.6 |
| 20260504171007 | 26 | 169 | 4.8 | 16.1 | 0.00 | 0.00 | 0.00 | 66 | 1014.7 |
| 20260504170505 | 26 | 190 | 4.8 | 16.1 | 0.00 | 0.00 | 0.00 | 65 | 1014.7 |
| 20260504160435 | 26 | 197 | 4.8 | 16.1 | 0.00 | 0.00 | 0.00 | 66 | 1015.5 |
| 20260504150352 | 23 | 194 | 3.2 | 12.9 | 0.00 | 0.00 | 0.00 | 68 | 1015.7 |
| 20260504140625 | 22 | 157 | 3.2 | 8.0 | 0.00 | 0.00 | 0.00 | 70 | 1015.6 |
| 20260504140120 | 22 | 182 | 3.2 | 11.3 | 0.00 | 0.00 | 0.00 | 71 | 1015.5 |
| 20260504130245 | 17 | 171 | 0.0 | 3.2 | 0.00 | 0.00 | 0.00 | 89 | 1015.6 |
| 20260504110646 | 13 | 0 | 0.0 | 0.0 | 0.00 | 0.00 | 0.00 | 89 | 1015.1 |
| 20260504110119 | 13 | 171 | 0.0 | 0.0 | 0.00 | 0.00 | 0.00 | 89 | 1015.0 |
| 20260504100329 | 14 | 171 | 0.0 | 0.0 | 0.00 | 0.00 | 0.00 | 86 | 1015.3 |
| 20260504090107 | 15 | 0 | 0.0 | 0.0 | 0.00 | 0.00 | 0.00 | 85 | 1015.9 |
| 20260504081418 | 15 | 0 | 0.0 | 0.0 | 0.00 | 0.00 | 0.00 | 82 | 1016.1 |
| 20260504080916 | 15 | 0 | 0.0 | 0.0 | 0.00 | 0.00 | 0.00 | 82 | 1016.0 |
| 20260504080349 | 15 | 171 | 0.0 | 0.0 | 0.00 | 0.00 | 0.00 | 81 | 1016.1 |
| 20260504080105 | 15 | 0 | 0.0 | 0.0 | 0.00 | 0.00 | 0.00 | 81 | 1016.2 |
| 20260504070150 | 16 | 171 | 0.0 | 1.6 | 0.00 | 0.00 | 0.00 | 80 | 1017.3 |
| 20260504050533 | 17 | 170 | 0.0 | 1.6 | 0.00 | 0.00 | 0.00 | 74 | 1018.0 |
| 20260504050007 | 17 | 0 | 0.0 | 1.6 | 0.00 | 0.00 | 0.00 | 73 | 1018.0 |
| 20260504045706 | 17 | 0 | 0.0 | 0.0 | 0.00 | 0.00 | 0.00 | 72 | 1017.9 |
| 20260504044913 | 17 | 0 | 0.0 | 0.0 | 0.00 | 0.00 | 0.00 | 71 | 1018.0 |
| 20260504044411 | 17 | 0 | 0.0 | 0.0 | 0.00 | 0.00 | 0.00 | 71 | 1018.0 |
| 20260504043908 | 18 | 0 | 0.0 | 0.0 | 0.00 | 0.00 | 0.00 | 71 | 1018.1 |
| 20260504043404 | 18 | 0 | 0.0 | 0.0 | 0.00 | 0.00 | 0.00 | 70 | 1018.1 |
| 20260504042838 | 18 | 0 | 0.0 | 3.2 | 0.00 | 0.00 | 0.00 | 69 | 1018.0 |
| 20260504042334 | 18 | 0 | 0.0 | 3.2 | 0.00 | 0.00 | 0.00 | 69 | 1018.1 |
| 20260504041808 | 18 | 0 | 0.0 | 1.6 | 0.00 | 0.00 | 0.00 | 69 | 1018.0 |
| 20260504041243 | 18 | 0 | 0.0 | 4.8 | 0.00 | 0.00 | 0.00 | 68 | 1018.1 |
| 20260504040728 | 18 | 0 | 0.0 | 4.8 | 0.00 | 0.00 | 0.00 | 68 | 1018.2 |
| 20260504040230 | 18 | 0 | 0.0 | 3.2 | 0.00 | 0.00 | 0.00 | 68 | 1018.2 |
| 20260504035704 | 18 | 0 | 0.0 | 4.8 | 0.00 | 0.00 | 0.00 | 67 | 1018.2 |
| 20260504035138 | 18 | 0 | 1.6 | 6.4 | 0.00 | 0.00 | 0.00 | 67 | 1018.1 |
| 20260504034857 | 18 | 0 | 1.6 | 6.4 | 0.00 | 0.00 | 0.00 | 66 | 1018.0 |
| 20260504034131 | 19 | 0 | 0.0 | 1.6 | 0.00 | 0.00 | 0.00 | 66 | 1018.1 |
| 20260504033629 | 19 | 0 | 0.0 | 3.2 | 0.00 | 0.00 | 0.00 | 65 | 1018.2 |
| 20260504033102 | 19 | 0 | 1.6 | 4.8 | 0.00 | 0.00 | 0.00 | 64 | 1018.2 |
| 20260504032559 | 19 | 0 | 1.6 | 4.8 | 0.00 | 0.00 | 0.00 | 64 | 1018.1 |
| 20260504032046 | 20 | 0 | 1.6 | 6.4 | 0.00 | 0.00 | 0.00 | 63 | 1018.1 |
| 20260504031548 | 20 | 0 | 1.6 | 6.4 | 0.00 | 0.00 | 0.00 | 63 | 1017.9 |
| 20260504031046 | 20 | 0 | 3.2 | 6.4 | 0.00 | 0.00 | 0.00 | 62 | 1017.8 |
| 20260504030542 | 20 | 0 | 3.2 | 6.4 | 0.00 | 0.00 | 0.00 | 62 | 1017.9 |
| 20260504030017 | 20 | 0 | 1.6 | 9.7 | 0.00 | 0.00 | 0.00 | 62 | 1017.8 |
| 20260504025450 | 20 | 0 | 1.6 | 9.7 | 0.00 | 0.00 | 0.00 | 62 | 1017.9 |
| 20260504024945 | 20 | 0 | 1.6 | 6.4 | 0.00 | 0.00 | 0.00 | 62 | 1017.8 |
| 20260504024422 | 20 | 0 | 1.6 | 6.4 | 0.00 | 0.00 | 0.00 | 61 | 1017.8 |
| 20260504023853 | 20 | 0 | 1.6 | 6.4 | 0.00 | 0.00 | 0.00 | 61 | 1017.9 |
| 20260504023352 | 20 | 0 | 1.6 | 4.8 | 0.00 | 0.00 | 0.00 | 60 | 1017.8 |
| 20260504022848 | 20 | 0 | 1.6 | 8.0 | 0.00 | 0.00 | 0.00 | 60 | 1017.8 |
| 20260504022345 | 21 | 0 | 3.2 | 8.0 | 0.00 | 0.00 | 0.00 | 59 | 1017.8 |
| 20260504021817 | 21 | 0 | 1.6 | 8.0 | 0.00 | 0.00 | 0.00 | 59 | 1017.7 |
| 20260504021315 | 21 | 0 | 1.6 | 8.0 | 0.00 | 0.00 | 0.00 | 58 | 1017.7 |
| 20260504020747 | 21 | 0 | 3.2 | 12.9 | 0.00 | 0.00 | 0.00 | 57 | 1017.6 |
| 20260504020244 | 21 | 0 | 3.2 | 8.0 | 0.00 | 0.00 | 0.00 | 58 | 1017.5 |
| 20260504015742 | 21 | 0 | 3.2 | 9.7 | 0.00 | 0.00 | 0.00 | 57 | 1017.5 |
| 20260504015239 | 21 | 154 | 3.2 | 9.7 | 0.00 | 0.00 | 0.00 | 57 | 1017.4 |
| 20260504014711 | 21 | 166 | 3.2 | 9.7 | 0.00 | 0.00 | 0.00 | 57 | 1017.4 |
| 20260504014209 | 21 | 0 | 1.6 | 11.3 | 0.00 | 0.00 | 0.00 | 57 | 1017.4 |
| 20260504013908 | 21 | 175 | 3.2 | 11.3 | 0.00 | 0.00 | 0.00 | 57 | 1017.4 |
| 20260504013407 | 21 | 0 | 1.6 | 6.4 | 0.00 | 0.00 | 0.00 | 56 | 1017.3 |
| 20260504012833 | 21 | 140 | 0.0 | 3.2 | 0.00 | 0.00 | 0.00 | 56 | 1017.2 |
| 20260504012045 | 22 | 140 | 1.6 | 6.4 | 0.00 | 0.00 | 0.00 | 56 | 1017.1 |
| 20260504011542 | 22 | 150 | 1.6 | 4.8 | 0.00 | 0.00 | 0.00 | 55 | 1017.0 |
| 20260504011224 | 22 | 150 | 1.6 | 3.2 | 0.00 | 0.00 | 0.00 | 54 | 1017.1 |
| 20260504011104 | 22 | 202 | 1.6 | 6.4 | 0.00 | 0.00 | 0.00 | 55 | 1017.0 |
| 20260504005945 | 22 | 149 | 1.6 | 4.8 | 0.00 | 0.00 | 0.00 | 53 | 1017.1 |
| 20260504005442 | 22 | 146 | 1.6 | 9.7 | 0.00 | 0.00 | 0.00 | 53 | 1017.0 |
| 20260504004917 | 23 | 139 | 3.2 | 9.7 | 0.00 | 0.00 | 0.00 | 51 | 1017.1 |
| 20260504004350 | 23 | 153 | 3.2 | 8.0 | 0.00 | 0.00 | 0.00 | 51 | 1017.1 |
| 20260504003846 | 23 | 144 | 1.6 | 4.8 | 0.00 | 0.00 | 0.00 | 50 | 1017.1 |
| 20260504003319 | 23 | 165 | 1.6 | 8.0 | 0.00 | 0.00 | 0.00 | 48 | 1017.2 |
| 20260504002816 | 24 | 144 | 1.6 | 9.7 | 0.00 | 0.00 | 0.00 | 47 | 1017.2 |
| 20260504002250 | 24 | 205 | 1.6 | 9.7 | 0.00 | 0.00 | 0.00 | 45 | 1017.2 |
| 20260504001746 | 25 | 172 | 1.6 | 3.2 | 0.00 | 0.00 | 0.00 | 45 | 1017.2 |
| 20260504001222 | 25 | 162 | 1.6 | 11.3 | 0.00 | 0.00 | 0.00 | 45 | 1017.0 |
| 20260504000657 | 25 | 163 | 3.2 | 11.3 | 0.00 | 0.00 | 0.00 | 43 | 1017.1 |
| 20260504000154 | 25 | 137 | 3.2 | 14.5 | 0.00 | 0.00 | 0.00 | 43 | 1017.1 |
| 20260503235650 | 26 | 158 | 3.2 | 14.5 | 0.00 | 0.00 | 0.00 | 43 | 1017.3 |
| 20260503235147 | 26 | 131 | 1.6 | 6.4 | 0.00 | 0.00 | 0.00 | 43 | 1017.3 |
| 20260503234644 | 26 | 229 | 1.6 | 8.0 | 0.00 | 0.00 | 0.00 | 44 | 1017.3 |
| 20260503234142 | 26 | 229 | 3.2 | 8.0 | 0.00 | 0.00 | 0.00 | 43 | 1017.3 |
| 20260503233638 | 26 | 129 | 3.2 | 6.4 | 0.00 | 0.00 | 0.00 | 44 | 1017.3 |
| 20260503233112 | 26 | 186 | 3.2 | 6.4 | 0.00 | 0.00 | 0.00 | 44 | 1017.3 |
| 20260503232608 | 26 | 182 | 1.6 | 8.0 | 0.00 | 0.00 | 0.00 | 43 | 1017.3 |
| 20260503232042 | 26 | 205 | 1.6 | 8.0 | 0.00 | 0.00 | 0.00 | 45 | 1017.3 |
| 20260503231537 | 26 | 196 | 1.6 | 8.0 | 0.00 | 0.00 | 0.00 | 44 | 1017.4 |
| 20260503231031 | 26 | 192 | 1.6 | 9.7 | 0.00 | 0.00 | 0.00 | 45 | 1017.4 |
| 20260503230528 | 26 | 189 | 3.2 | 9.7 | 0.00 | 0.00 | 0.00 | 43 | 1017.4 |
| 20260503225959 | 26 | 195 | 3.2 | 8.0 | 0.00 | 0.00 | 0.00 | 44 | 1017.4 |
| 20260503225457 | 26 | 161 | 3.2 | 8.0 | 0.00 | 0.00 | 0.00 | 45 | 1017.4 |
| 20260503224930 | 26 | 140 | 3.2 | 6.4 | 0.00 | 0.00 | 0.00 | 43 | 1017.5 |
| 20260503224428 | 26 | 132 | 1.6 | 8.0 | 0.00 | 0.00 | 0.00 | 43 | 1017.7 |
| 20260503223924 | 26 | 175 | 3.2 | 8.0 | 0.00 | 0.00 | 0.00 | 45 | 1017.6 |